Location: Saint-Gaudens
(43.1069°N, 0.7238°E)
Time: 16:05:23
(UTC+02:00)

ISS - Visible Passes

Search period start: 16 April 2026 00:00
Search period end: 26 April 2026 00:00
Orbit: 415 x 424 km, 51.6° (Epoch: 15 April)

Date Brightness Start Highest point End Pass type
(mag) Time Alt. Az. Time Alt. Az. Time Alt. Az.
17 Apr -1.3 06:10:54 10° S 06:13:11 17° SE 06:15:28 10° E visible
18 Apr -0.9 05:25:36 10° SE 05:26:00 10° SE 05:26:24 10° ESE visible
19 Apr -3.0 06:12:04 13° SSW 06:14:54 47° SE 06:18:10 10° ENE visible
20 Apr -2.3 05:26:37 24° SSE 05:27:36 28° SE 05:30:32 10° ENE visible
21 Apr -1.3 04:41:05 16° ESE 04:41:05 16° ESE 04:42:38 10° E visible
21 Apr -3.6 06:14:03 14° WSW 06:16:49 65° NNW 06:20:11 10° NE visible
22 Apr -3.8 05:28:26 44° SW 05:29:22 80° SSE 05:32:45 10° ENE visible
23 Apr -2.6 04:42:45 38° E 04:42:45 38° E 04:45:14 10° ENE visible
23 Apr -2.4 06:15:49 10° W 06:18:53 32° NNW 06:21:58 10° NE visible
24 Apr -0.8 03:57:01 13° E 03:57:01 13° E 03:57:34 10° ENE visible
24 Apr -2.9 05:29:58 27° W 05:31:20 43° NNW 05:34:34 10° NE visible
25 Apr -3.3 04:44:10 58° N 04:44:10 58° N 04:47:09 10° NE visible
25 Apr -1.7 06:18:24 10° WNW 06:21:05 21° N 06:23:46 10° NE visible
